Location: Santa Cristina
(46.5667°N, 11.7167°E)
Time: 17:34:51
(UTC+00:00)

IRAS Rocket - Pass Details

Date: 21 April 2021
Orbit: 848 x 877 km, 100.1° (Epoch: 12 May)

Event Time Altitude Azimuth Distance (km) Brightness Sun altitude
Rises 03:03:12 0° 165° (SSE) 3,403 7.2 -12.0°
Reaches altitude 10° 03:05:33 10° 167° (SSE) 2,475 6.4 -11.7°
Maximum altitude 03:11:03 79° 254° (WSW) 878 4.2 -10.9°
Drops below altitude 10° 03:16:38 10° 341° (NNW) 2,510 6.8 -10.0°
Sets 03:19:02 0° 343° (NNW) 3,456 7.5 -9.7°
